Location: Oshawa
(43.9000°N, 78.8670°W)
Time: 20:11:05
(UTC-04:00)

Thor Agena Rocket - Visible Passes

Search period start: 23 June 2017 00:00
Search period end: 03 July 2017 00:00
Orbit: 759 x 808 km, 99.1° (Epoch: 22 June)

Date Brightness Start Highest point End Pass type
(mag) Time Alt. Az. Time Alt. Az. Time Alt. Az.
24 Jun 7.0 04:48:44 10° E 04:50:56 13° NE 04:53:09 10° NNE visible
27 Jun 6.9 04:53:51 10° E 04:56:26 14° ENE 04:58:59 10° NNE visible
30 Jun 6.8 04:59:03 10° E 05:01:55 15° ENE 05:04:46 10° NNE visible
01 Jul 7.3 21:36:34 10° NW 21:37:14 10° NW 21:37:54 10° WNW visible
